Regional Weather Roundup
Issued by NWS Wakefield, VA

Home | Current Version | Previous Version | Graphics & Text | Print | Product List | Glossary On
Versions: 1 2 3 4 5 6 7 8 9 10 11 12 13 14 15 16 17 18 19 20 21 22 23 24 25 26 27 28 29 30 31 32 33 34 35 36 37 38 39 40 41 42 43 44 45 46 47 48 49 50
049
ASUS41 KAKQ 240915
RWRAKQ

REGIONAL WEATHER ROUNDUP
NATIONAL WEATHER SERVICE WAKEFIELD VA
400 AM EST FRI NOV 24 2017

Note: "fair" indicates few or no clouds below 12,000 feet with no
significant weather and/or obstructions to visibility. * = Denotes
station may not report precipitation (e.g., rain,snow,etc.),
thunder or fog.

VAZ042-051-052>054-056-241000-
NORTHERN VIRGINIA

CITY           SKY/WX    TMP DP  RH WIND       PRES   REMARKS
WASH NATIONAL  CLEAR     33  29  85 SW3       30.08F
DULLES         CLEAR     26  24  92 CALM      30.06F
FORT BELVOIR   CLEAR     26  24  91 CALM      30.08S
QUANTICO       CLEAR     30  27  88 NW8       30.09S
FREDERICKSBRG* CLEAR     27  27 100 CALM      30.07S
STAFFORD*      CLEAR     24  24 100 CALM      30.11S
WARRENTON      NOT AVBL
CULPEPER*      CLOUDY    24  21  89 CALM      30.08S
MANASSAS*      CLEAR     23  21  92 S3        30.07F
LEESBURG*      CLOUDY    28  28 100 CALM      30.06F
WINCHESTER     CLOUDY    27  21  80 CALM      30.04S
FRONT ROYAL*   CLOUDY    28  25  86 SW3       30.03F
LURAY*         SUNNY     28  27  93 CALM      30.05F
$$

VAZ048-049-060>072-079>083-241000-
CENTRAL AND SOUTH CENTRAL VIRGINIA

CITY           SKY/WX    TMP DP  RH WIND       PRES   REMARKS
RICHMOND       CLEAR     27  24  89 CALM      30.09R
CHESTERFIELD*  NOT AVBL
PETERSBURG*    CLEAR    N/A N/A N/A CALM      30.09S
HANOVER        CLEAR     27  25  92 CALM      30.09S
TAPPAHANNOCK*    N/A    N/A N/A N/A MISG        N/A
QUINTON*       FAIR      26  26  98 CALM      30.09R
CHARLOTTSVILLE CLEAR     28  24  85 S5        30.04S
GORDONSVILLE*  CLOUDY    24  23  97 S3        30.06R
ORANGE*        CLOUDY    25  23  93 CALM      30.06S
LOUISA*        CLEAR     27  22  84 SW3       30.10S
BUMPASS*       FAIR      25  25 100 CALM      30.07R
FARMVILLE*     CLOUDY    24  24 100 CALM      30.06S
CREWE*         FAIR      24  24 100 CALM      30.07S
FORT PICKETT*  FAIR      29  29 100 CALM      30.07S
CHASE CITY*    FAIR      27  27 100 CALM      30.07S
CLARKSVILLE*   FAIR      27  27 100 CALM      30.06F
SOUTH HILL*    CLOUDY    26  25  97 CALM      30.12F
LAWRENCEVILLE* FAIR      27  26  96 CALM      30.07F
EMPORIA*       CLOUDY    25  23  93 CALM      30.09F
$$

VAZ088>098-241000-
SOUTHEAST VIRGINIA

CITY           SKY/WX    TMP DP  RH WIND       PRES   REMARKS
NORFOLK        CLEAR     31  29  92 CALM      30.07F
VIRGINIA BEACH CLEAR     29  26  89 CALM      30.07F
NORFOLK NAVAL  CLEAR     30  27  88 CALM      30.09F
WEST POINT*    CLOUDY    26  26  97 CALM      30.11S VSB 1/4
SALUDA*        FAIR      27  27  99 CALM      30.09R
NEWPORT NEWS   CLEAR     27  24  89 CALM      30.08F
LANGLEY AFB    CLEAR     29  27  92 NW3       30.07F
FORT EUSTIS    CLEAR     30  28  89 CALM      30.06S
WILLIAMSBURG*  CLEAR     30  28  93 CALM      30.10R
HR EXEC AP*    NOT AVBL
FRANKLIN*      CLEAR     23  22  93 CALM      30.09F
US460-WAKEFLD  CLEAR     25  24  96 CALM      30.08F
$$

VAZ020-022-025-037-045-241000-
WEST CENTRAL AND SOUTHWEST VIRGINIA

CITY           SKY/WX    TMP DP  RH WIND       PRES   REMARKS
STAUNTON*      CLOUDY    20  17  90 CALM      30.06F
WAYNESBORO*    MOSUNNY   27  22  82 SE3       30.04R
HOT SPRINGS VA CLEAR     35   4  27 W12       29.98S
LYNCHBURG      CLOUDY    25  23  92 CALM      30.04S
DANVILLE       CLOUDY    24  24 100 CALM      30.06F
SOUTH BOSTON*  FAIR      24  23  96 CALM      30.07F
MARTINSVILLE   CLEAR     23  21  93 CALM      30.07F
ROANOKE        CLEAR     30  26  85 CALM      30.06S
BLACKSBURG     CLOUDY    27  24  88 CALM      30.05F
DUBLIN*        CLEAR     28  24  86 CALM      30.03F
MARION*        CLEAR     29  26  87 CALM      30.05S
HILLSVILLE*    CLOUDY    31  26  81 SW3       30.00S
RICHLANDS*     FAIR      37  23  56 S3        30.03S
WISE*          CLOUDY    37  23  56 S5        30.01F
ABINGDON*      CLEAR     33  30  90 CALM      30.04S
$$

MDZ021>025-VAZ099-100-241000-
SOUTHERN MARYLAND AND THE DELMARVA PENINSULA

CITY           SKY/WX    TMP DP  RH WIND       PRES   REMARKS
PATUXENT RIVER CLEAR     28  27  96 SW3       30.07F
BAY BRIDGE APT CLEAR     32  30  93 MISG      30.08S
LEONARDTOWN    CLEAR     28  28 100 CALM      30.08F
DOVER          CLEAR     29  29  97 SW5       30.07S
GEORGETOWN     CLEAR     28  24  85 CALM      30.08S
EASTON         CLEAR     29  27  90 CALM      30.11S
CAMBRIDGE      CLEAR     27  27 100 CALM      30.08S
SALISBURY      CLEAR     26  25  96 CALM      30.08S
OCEAN CITY     CLEAR     27  25  92 CALM      30.09S
WALLOPS ISLAND CLEAR     28  27  96 CALM      30.09S
ACCOMACK*      CLEAR     29  28  96 CALM      30.09R
$$

NCZ012>017-030>032-241000-
NORTH CENTRAL AND EASTERN NORTH CAROLINA

CITY           SKY/WX    TMP DP  RH WIND       PRES   REMARKS
ROANOKE RAPIDS FAIR      28  28 100 CALM      30.08F
RALEIGH        CLEAR     28  27  96 CALM      30.06F
ELIZABETH CITY CLEAR     38  33  82 N6        30.07F
AHOSKIE*       CLEAR     27  26  97 CALM      30.09S
EDENTON*       CLEAR     36  32  87 CALM      30.08S
CURRITUCK*     CLEAR     33  32  96 CALM      30.08F
KILL DEVIL HLS CLEAR     42  35  75 CALM      30.03F
MANTEO         CLEAR     44  36  74 N8        30.05F
CAPE HATTERAS  CLOUDY    51  43  74 N10       30.02S
TARBORO*       NOT AVBL
GOLDSBORO      CLEAR     34  30  86 CALM      30.04F FOG
WASHINGTON     CLEAR     32  31  97 CALM      30.07S
GREENVILLE     CLEAR     30  30 100 CALM      30.08S FOG
NEW BERN       CLOUDY    39  38  96 N6        30.05F
WILMINGTON     CLOUDY    44  38  79 N9        30.01F
$$

VAZ048-241000-
ELSEWHERE

CITY           SKY/WX    TMP DP  RH WIND       PRES   REMARKS
HARRISBURG PA  CLOUDY    27  25  92 CALM      30.05S
BALTIMORE      CLEAR     27  24  89 CALM      30.06F
ANNAPOLIS      CLEAR     32  30  92 CALM      30.07F
ANDREWS AFB    CLEAR     27  23  87 CALM      30.05F
PHILADELPHIA   CLEAR     31  24  75 CALM      30.07S
HENDERSON NC   CLEAR     26  25  94 CALM      30.06F
GREENSBORO     CLEAR     30  27  88 CALM      30.04S
ROCKY MOUNT    CLEAR     28  27  96 CALM      30.07F FOG
$$

VAZ100-241000-
MARINE

STATION/POSITION TIME  TEMP    WIND        PRES    WAVE   SWELL
                       AIR SEA DIR/SP/G            HT/PER HT/PER
                 (UTC) (F)     (DEG/KT/KT) (MB)    (FT/S) (FT/S)
BRANDYWINE LGT   0842   42     280/  9/ 10 1018.5F
CAPE MAY NJ      0842   41 50  300/  6/  8 1017.7F
LEWES DE         0842   34 48  250/  5/  7 1018.1F
15NM E FENWICK I 0850   44 57  300/  4/  6 1018.7S   3/10   2/10
OCEAN-CITY-INLET 0842   37 53  270/  2/  3 1018.9F
WACHAPREAGUE VA  0842   30 45  290/  1/  2 1018.8R
THOMAS POINT MD  0900   40 51  270/  4/  5   N/A
GOOSES REEF MD   0850   42     280/  6/  8 1018.7F
COVE POINT MD    0842   40     260/  4/  7 1018.8F
SOLOMONS ISLAND  0842   39 53  200/  3/  5 1018.0F
BISHOPS HEAD MD  0842   41 44   20/  2/  3 1018.7S
PINEY POINT MD   0848          270/  5/  6   N/A
POTOMAC MD       0850   42     270/  6/  6 1017.9R
CAMBRIDGE MD     0842   30 49              1019.0F
LEWISETTA VA     0842   35 49  230/  4/  4 1018.7R
RAPPAHANNOCK LGT 0848          130/  3/  3 1019.3R
STINGRAY PT      0850   42     280/  4/  4 1019.0R
YORK RVR RNG VA  0836   43     330/  4/  5 1019.2R
YORKTOWN VA      0836   36 52  240/  2/  3 1018.6R
JAMESTOWN VA     0850           60/  2/  4   N/A
DOMINION TERM VA 0836   41      40/  2/  2 1018.6F
KIPTOPEKE VA     0848      52   60/  4/  4   N/A
CAPE HENRY VA    0836   44      20/  5/  8   N/A
WILLOUBY STN VA  0836   43     330/  4/  5 1018.3F
S CRANEY ISL VA  0836   36     270/  3/  3 1018.3F
CAPE HENRY BUOY  0900      59                N/A     3/ 9   2/11
1ST LANDING BUOY 0850   44      60/  4/  6 1018.4F
CAPE CHARLES BUO 0851      57                N/A     3/ 9   2/11
64NM E OF VA BCH 0850   48 59   10/ 10/ 14 1018.1F   4/ 8   3/ 8
DUCK PIER NC     0836   45 57  330/ 11/ 16 1017.2F
44100 DUCK FRF   0845      60                N/A     4/ 9   2/11
44056 DUCK FRF   0900      60                N/A     3/ 9   2/11
OREGON INLET NC  0836   48 57   10/ 10/ 14 1017.0F
HATTERAS NC      0836   51 58   20/ 15/ 18 1016.2S
DIAMOND SHLS NC  0850   58 72   20/ 17/ 23 1015.9F   5/10   5/10
CAPE LOOKOUT NC  0900           10/ 11/ 14 1016.4F
$$




USA.gov is the U.S. government's official web portal to all federal, state and local government web resources and services.